Flag for Germany Past Weather in Brühl (Rhineland), North Rhine-Westphalia, Germany — Yesterday and Last 2 Weeks

Now
67 °F

Sprinkles. Low clouds.


Feels Like: 67 °F
Forecast: 58 / 68 °F
Wind: 3 mph from Northwest

Location: Noervenich

Current Time: May 30, 2016 at 6:40:36 PM

Latest Report: May 30, 2016 at 6:00 PM


Visibility: 3 mi

Pressure: 29.58 "Hg

Humidity: 88%

Dew Point: 64 °F

Location of Brühl (Rhineland)Location

Past Weather in Brühl (Rhineland) — Graph

°F

Brühl (Rhineland) Temperature Yesterday

Maximum temperature yesterday: 69 °F (at 4:00 PM)
Minimum temperature yesterday: 56 °F (at 4:00 AM)
Average temperature yesterday: 63 °F

High & Low Weather Summary for the Past Weeks

 TemperatureHumidityPressure
High75 °F (May 21, 6:00 PM)98% (May 28, 4:00 AM)30.16 "Hg (May 28, 4:00 AM)
Low44 °F (May 16, 6:00 AM)37% (May 17, 3:00 PM)29.61 "Hg (May 30, 4:00 PM)
Average58 °F74%29.93 "Hg
* Reported May 15 4:00 PM — May 30 4:00 PM, Brühl (Rhineland), Weather by CustomWeather, © 2016

Note: Actual official high and low records may vary slightly from our data, if they occured in-between our weather recording intervals... More about our weather records

Advertising

Brühl (Rhineland) Weather History for the Previous 24 Hours

Scroll right to see more
 ConditionsComfort  
Time TempWeatherWind HumidityBarometerVisibility
4:00 PM
Mon, May 30
65 °FFog.3 mph90%29.61 "Hg2 mi
3:00 PM63 °FFog.3 mph92%29.62 "Hg2 mi
1:00 PM61 °FLow clouds.5 mph95%29.63 "Hg5 mi
12:00 PM60 °FRain. Low clouds.3 mph98%29.63 "Hg2 mi
10:00 AM60 °FSprinkles. Low clouds.3 mph97%29.62 "Hg2 mi
9:00 AM60 °FRain showers. Low clouds.3 mph96%29.63 "Hg2 mi
7:00 AM60 °FRain. Low clouds.5 mph97%29.64 "Hg2 mi
6:00 AM59 °FThundershowers. Low clouds.5 mph97%29.65 "Hg1 mi
4:00 AM59 °FLight rain. Low clouds.3 mph95%29.68 "Hg2 mi
3:00 AM60 °FLow clouds.3 mph94%29.69 "Hg2 mi
1:00 AM60 °FLight rain. Overcast.3 mph94%29.72 "Hg2 mi
12:00 AM61 °FFog.2 mph91%29.73 "Hg2 mi
10:00 PM
Sun, May 29
62 °FFog.2 mph91%29.72 "Hg3 mi
9:00 PM63 °FFog.2 mph89%29.72 "Hg4 mi
7:00 PM65 °FFog.3 mph87%29.70 "Hg4 mi
6:00 PM65 °FOvercast.3 mph90%29.70 "Hg3 mi
Weather by CustomWeather, © 2016

See weather overviewHow to use our weather pages